www.pogodaiklimat.ru

Погода и климат >> Архив погоды >> Хорватия >> Дубровник


ПОГОДА в Дубровнике

  • Прогноз погоды в Дубровнике
  • Монитор погоды в Дубровнике

АРХИВ ПОГОДЫ в Дубровнике

Время (UTC), дата Ветер
(напр.,м/с)
 
Видим.   Явления Облачность Т
(С)
Тd
(С)
f
(%)
Тe
(С)
Тes
(С)
Комфортность P
(гПа)
Po
(гПа)
Тmin
(С)
Tmax
(С)
R
(мм)
R24
(мм)
S
(см)
07 11.07 СВ 8 30 км ясно +22.3 +4.4 31 +22 +24 комфорт 1010.3 1004.1
08 11.07 СВ 7 30 км ясно +23.4 +4.3 29 +23 +27 комфорт 1010.6 1004.4
09 11.07 Ю 3 н/о н/о +26.5 +8.1 31 +26 +26 жарко 1011.8 1005.7
10 11.07 З 4 30 км ясно +26.7 +8.5 32 +27 +40 жарко 1010.9 1004.8
11 11.07 ЮЗ 4 30 км ясно +25.9 +9.0 34 +26 +39 жарко 1010.7 1004.6
12 11.07 ЮЗ 4 30 км ясно +27.4 +10.9 36 +28 +40 жарко 1010.7 1004.6
13 11.07 З 6 30 км ясно +26.9 +10.7 36 +28 +34 жарко 1010.5 1004.4
14 11.07 н/о н/о +25.7 +13.3 46 1011.1 1005.0
15 11.07 З 6 н/о н/о +25.4 +14.9 52 +28 +28 жарко 1010.9 1004.8
16 11.07 З 6 н/о н/о +24.2 +12.6 48 +26 +26 жарко 1010.6 1004.5
17 11.07 З 5 н/о н/о +24.4 +13.7 51 +27 +27 жарко 1010.6 1004.5
18 11.07 СЗ 4 30 км 3/0
[Ci fib]
+23.3 +11.1 46 +26 +26 жарко 1010.3 1004.1 +28.2
19 11.07 СЗ 4 30 км 3/0
[Ci fib]
+23.0 +9.4 42 +25 +25 комфорт 1010.0 1003.8
20 11.07 СЗ 3 30 км ясно +22.6 +9.7 44 +24 +24 комфорт 1010.3 1004.1
21 11.07 СЗ 2 н/о н/о +22.9 +9.7 43 +25 +25 комфорт 1011.5 1005.3
00 12.07 СВ 2 н/о н/о +23.5 +8.4 38 +24 +24 комфорт 1011.0 1004.9
03 12.07 СВ 2 30 км ясно +22.0 +5.8 35 +23 +23 комфорт 1010.4 1004.2
04 12.07 СВ 3 30 км ясно +22.1 +6.0 35 +23 +23 комфорт 1010.5 1004.3
05 12.07 СВ 2 30 км 3/0
[Ci sp]
+22.0 +5.3 34 +22 +24 комфорт 1010.9 1004.7
06 12.07 В 1 30 км 3/0
[Ci sp]
+24.3 +7.0 33 +24 +30 комфорт 1011.1 1005.0 +21.3
07 12.07 ЮВ 3 30 км 3/0
[Ac cast]
+25.2 +9.3 37 +26 +32 жарко 1011.1 1005.0
08 12.07 ЮВ 3 30 км 3/0
[Ac cast]
+26.8 +14.4 47 +29 +38 жарко 1011.4 1005.3
09 12.07 ЮВ 6 30 км 4/1 1000 м
[Cu med, cong Ac cast]
+26.0 +16.2 55 +29 +34 душно 1011.7 1005.6
10 12.07 ЮВ 7 30 км 4/1 1000 м
[Cu med, cong Ac cast]
+27.0 +18.6 60 +32 +36 очень
душно
1011.7 1005.6
11 12.07 ЮВ 7 30 км 4/1 1000 м
[Cu med, cong Ac cast]
+27.2 +18.1 58 +32 +36 очень
душно
1011.4 1005.3
12 12.07 Ю 6 30 км 4/3 1000 м
[Cu med, cong Ac cast]
+28.1 +16.6 50 +32 +36 душно 1011.0 1005.0
13 12.07 Ю 5 30 км 4/3 1000 м
[Cu med, cong Ac cast]
+28.3 +16.5 49 +32 +37 душно 1011.0 1005.0
14 12.07 Ю 4 н/о н/о +26.9 +16.9 54 +31 +31 душно 1011.4 1005.3
15 12.07 ЮВ 3 н/о н/о +26.8 +16.8 54 +30 +30 душно 1011.4 1005.3
16 12.07 ЮВ 2 н/о н/о +25.6 +16.2 56 +29 +29 душно 1011.1 1005.0
17 12.07 ЮВ 2 н/о н/о +24.8 +17.1 62 +29 +29 душно 1011.3 1005.2
18 12.07 ЮВ 2 30 км 3/3 1000 м
[Cu med, cong]
+24.8 +18.4 68 +29 +29 душно 1011.0 1004.9 +28.8
19 12.07 ЮВ 2 30 км 1/1 1000 м
[Cu hum]
+23.7 +18.1 71 +28 +28 душно 1011.0 1004.9
20 12.07 штиль 0 20 км ясно +22.6 +17.7 74 +28 +28 душно 1011.2 1005.0
21 12.07 В 1 н/о н/о +22.2 +17.2 73 +27 +27 душно 1012.2 1006.0
00 13.07 С 1 н/о н/о +21.4 +16.9 76 +25 +25 комфорт 1011.6 1005.4
03 13.07 С 1 30 км ясно +21.0 +15.3 70 +25 +25 комфорт 1010.4 1004.2
04 13.07 С 1 30 км 3/1 1000 м
[Cu hum Ci fib]
+21.1 +14.5 66 +24 +24 комфорт 1010.3 1004.1
05 13.07 СВ 1 30 км 3/1 1000 м
[Cu hum Ci fib]
+21.6 +15.6 69 +25 +27 комфорт 1010.3 1004.1
06 13.07 В 3 30 км 1/1 1000 м
[Cu hum]
+23.5 +16.8 66 +27 +31 душно 1010.2 1004.1 +21.0
07 13.07 ЮВ 4 20 км 1/1 1000 м
[Cu med, cong]
+25.1 +17.1 61 +29 +34 душно 1010.2 1004.1
08 13.07 ЮВ 6 30 км 4/1 1000 м
[Cu med, cong Cs]
+25.0 +18.9 69 +30 +34 душно 1010.2 1004.1
09 13.07 ЮВ 6 30 км 8/3 1000 м
[Cu med, cong Cs]
+24.5 +17.7 66 +29 +33 душно 1010.2 1004.1
10 13.07 ЮВ 8 20 км 8/3 1000 м
[Cu med, cong Cs]
+25.2 +20.2 74 +31 +33 очень
душно
1010.0 1003.9
11 13.07 ЮВ 5 20 км 8/5 1000 м
[Cu med, cong Cs]
+25.6 +19.4 69 +31 +36 очень
душно
1010.2 1004.1
12 13.07 ЮВ 6 20 км 6/4 1000 м
[Cu med, cong Ci fib]
+26.7 1009.5 1003.4
13 13.07 ЮВ 4 н/о н/о +27.9 +18.1 55 +32 +32 душно 1008.7 1002.7
14 13.07 ЮВ 4 н/о н/о +26.4 +20.1 68 +32 +32 очень
душно
1008.8 1002.7
15 13.07 ЮВ 4 н/о н/о +24.6 +19.7 74 +30 +30 очень
душно
1008.1 1002.0
16 13.07 ЮВ 3 н/о н/о +24.7 +19.4 72 +30 +30 очень
душно
1007.7 1001.6
17 13.07 Ю 2 н/о н/о +24.1 +18.4 70 +29 +29 душно 1008.0 1001.9
18 13.07 Ю 2 20 км 6/6 1000 м
[Cu med, cong]
+23.9 +18.2 70 +28 +28 душно 1007.4 1001.3 +28.1
19 13.07 штиль 0 20 км 6/6 1000 м
[Cu med, cong]
+23.1 +18.7 76 +29 +29 очень
душно
1008.1 1002.0
20 13.07 СВ 6 н/о н/о +19.3 +16.0 81 +21 +21 комфорт 1008.5 1002.3
21 13.07 ЮВ 4 н/о н/о +18.1 +16.7 92 +18 +18 1009.2 1002.9
00 14.07 СЗ 3 н/о н/о +20.4 +11.1 55 +22 +22 комфорт 1007.9 1001.7
03 14.07 СЗ 4 30 км ясно +20.6 +9.7 50 +22 +22 комфорт 1007.1 1000.9
04 14.07 СЗ 4 30 км ясно +20.4 +7.7 44 +22 +22 комфорт 1007.1 1000.9
05 14.07 СЗ 2 30 км ясно +20.7 +7.4 42 +22 +24 комфорт 1007.2 1001.0
06 14.07 СВ 4 30 км ясно +21.4 +7.2 40 +22 +25 комфорт 1007.2 1001.0 +17.6 21
07 14.07 СВ 5 30 км ясно +22.5 +7.1 37 +23 +28 комфорт 1007.5 1001.3
08 14.07 СВ 4 30 км ясно +23.7 +7.4 35 +24 +33 комфорт 1007.5 1001.4
09 14.07 ЮЗ 3 30 км 3/3 1000 м
[Cu med, cong]
+25.6 +9.9 37 +26 +36 жарко 1007.8 1001.7
10 14.07 СЗ 3 30 км 3/3 1000 м
[Cu med, cong]
+26.2 +9.9 36 +27 +38 жарко 1008.0 1001.9
11 14.07 ЮЗ 2 30 км 4/4 1000 м
[Cu med, cong]
+26.9 +11.8 39 +28 +40 жарко 1008.0 1001.9
12 14.07 СЗ 4 30 км 4/4 1000 м
[Cu med, cong]
+28.1 +9.5 31 +28 +35 жарко 1007.9 1001.9
13 14.07 СЗ 3 30 км 4/4 1000 м
[Cu med, cong]
+28.0 +8.8 30 +28 +35 жарко 1007.9 1001.9
14 14.07 З 5 н/о н/о +27.0 +14.5 46 +29 +29 жарко 1008.2 1002.1
15 14.07 З 5 н/о н/о +26.8 +13.6 44 +29 +29 жарко 1008.0 1001.9
16 14.07 З 5 н/о н/о +26.1 +13.3 45 +28 +28 жарко 1007.9 1001.8
17 14.07 З 4 н/о н/о +26.2 +12.7 43 +28 +28 жарко 1007.7 1001.6
18 14.07 СЗ 4 30 км 1/1 1000 м
[Cu hum]
+25.7 +11.0 40 +27 +27 жарко 1007.1 1001.0 +29.0
19 14.07 СЗ 3 30 км ясно +24.8 +11.2 42 +26 +26 жарко 1007.7 1001.6
20 14.07 С 2 30 км ясно +23.6 +8.0 37 +24 +24 комфорт 1008.1 1002.0
21 14.07 СВ 5 н/о н/о +24.2 +9.4 39 +25 +25 комфорт 1008.7 1002.6
00 15.07 СВ 9 н/о н/о +23.0 +9.8 43 +25 +25 комфорт 1008.4 1002.3
03 15.07 СВ 10 30 км 3/0
[Ci fib]
+22.4 +7.7 39 +23 +23 комфорт 1007.2 1001.0
04 15.07 СВ 10 30 км 4/0
[Ci fib]
+22.2 +7.6 39 +23 +23 комфорт 1007.0 1000.8
05 15.07 СВ 9 30 км 1/0
[Ci fib]
+22.5 +8.3 40 +24 +24 комфорт 1006.5 1000.4
06 15.07 СВ 11 30 км ясно +22.8 +7.5 37 +24 +24 комфорт 1007.1 1001.0 +22.2
07 15.07 СВ 8 30 км ясно +25.1 +7.8 33 +25 +27 комфорт 1007.6 1001.5
08 15.07 В 3 30 км 3/0
[Ci fib]
+27.2 +8.8 31 +27 +37 жарко 1008.1 1002.0
09 15.07 ЮВ 4 30 км 5/1 1000 м
[Cu med, cong Cs]
+28.0 +17.4 53 +32 +41 душно 1008.0 1002.0
10 15.07 Ю 3 30 км 5/1 1000 м
[Cu med, cong Cs]
+27.2 +16.2 51 +31 +43 душно 1008.0 1002.0
11 15.07 Ю 3 30 км 4/1 1000 м
[Cu med, cong Cs]
+28.8 +15.5 44 +32 +45 душно 1008.0 1002.0
12 15.07 ЮЗ 3 30 км 6/3 1000 м
[Cu med, cong Cs]
+28.4 +15.5 45 +31 +41 душно 1007.9 1001.9
13 15.07 ЮЗ 3 30 км 4/1 1000 м
[Cu med, cong Cs]
+28.8 +15.3 44 +32 +42 душно 1007.9 1001.9
14 15.07 З 5 н/о н/о +26.2 +15.0 50 +29 +29 жарко 1008.1 1002.0
15 15.07 З 4 н/о н/о +25.1 +13.4 48 +27 +27 жарко 1008.0 1001.9
16 15.07 З 2 н/о н/о +24.5 +16.3 60 +28 +28 душно 1007.7 1001.6
17 15.07 З 3 н/о н/о +24.1 +16.7 63 +28 +28 душно 1007.9 1001.8
18 15.07 СЗ 2 20 км 9/0
[Ac As]
+24.0 +15.3 58 +27 +27 жарко 1007.2 1001.1 +29.3
19 15.07 СЗ 2 20 км 9/0
[Ac As]
+24.0 +16.0 61 +27 +27 жарко 1007.3 1001.2
20 15.07 С 6 20 км 10/0
[As op]
+24.0 +9.9 41 +25 +25 комфорт 1007.2 1001.1
21 15.07 СВ 2 н/о н/о +24.3 +12.0 46 +26 +26 жарко 1008.3 1002.2
00 16.07 СВ 7 н/о н/о +23.4 +11.5 47 +26 +26 жарко 1007.6 1001.5
03 16.07 СВ 2 20 км 8/0
[Ac As]
+23.0 +10.1 44 +25 +25 комфорт 1007.1 1001.0
04 16.07 СВ 8 20 км 8/0
[Ac As]
+23.0 +9.2 41 +24 +24 комфорт 1006.7 1000.6
05 16.07 СВ 10 20 км 8/0
[Ac As]
+23.2 +8.4 39 +24 +24 комфорт 1006.2 1000.1
06 16.07 СВ 9 20 км 8/0
[Ac As]
+23.5 +7.4 36 +24 +24 комфорт 1006.3 1000.2 +22.7
07 16.07 СВ 9 20 км 8/0
[Ac As]
+24.2 +6.4 32 +24 +25 комфорт 1007.1 1001.0
08 16.07 СВ 7 20 км 8/0
[Cs]
+25.0 +7.2 32 +25 +28 комфорт 1007.1 1001.0
09 16.07 В 2 20 км 8/0
[Cs]
+26.1 +7.1 30 +26 +40 жарко 1007.1 1001.0
10 16.07 ЮВ 4 20 км 8/0
[Cs]
+28.0 +7.1 27 +27 +38 жарко 1007.1 1001.1
11 16.07 В 5 20 км 8/0
[Cs]
+29.7 +6.2 23 +28 +37 жарко 1007.1 1001.1
12 16.07 ЮВ 6 20 км 8/3 1000 м
[Cu med, cong Cs]
+30.0 +6.2 22 +29 +33 жарко 1006.7 1000.7
13 16.07 З 4 20 км 5/5 1000 м
[Cu med, cong]
+27.7 +10.3 34 +28 +33 жарко 1006.7 1000.7
14 16.07 З 3 н/о н/о +26.6 +10.4 36 +27 +27 жарко 1007.6 1001.5
15 16.07 н/о н/о
16 16.07 ЮВ 3 н/о н/о +26.0 +18.5 63 +31 +31 очень
душно
1008.3 1002.2
17 16.07 ЮВ 3 н/о н/о +24.7 +17.5 64 +29 +29 душно 1008.6 1002.5
18 16.07 ЮВ 2 20 км 4/0
[Ci fib]
+24.7 +17.3 63 +29 +29 душно 1008.2 1002.1 +30.1
19 16.07 СВ 5 20 км 3/0
[Ci fib]
+24.8 +15.1 55 +28 +28 жарко 1008.6 1002.5
20 16.07 СВ 5 20 км 3/0
[Ci fib]
+25.0 +7.6 33 +25 +25 комфорт 1009.1 1003.0
21 16.07 СВ 7 н/о н/о +24.4 +5.8 30 +24 +24 комфорт 1010.5 1004.4
00 17.07 СВ 10 н/о н/о +23.1 +6.0 33 +24 +24 комфорт 1010.4 1004.2
03 17.07 СВ 10 30 км ясно +22.5 +7.3 38 +23 +23 комфорт 1009.7 1003.5
04 17.07 СВ 9 30 км ясно +22.5 +6.8 36 +23 +23 комфорт 1009.6 1003.4
05 17.07 СВ 8 30 км ясно +22.7 +6.1 34 +23 +24 комфорт 1009.9 1003.7
06 17.07 СВ 9 30 км ясно +24.0 +6.3 32 +24 +25 комфорт 1009.9 1003.8 +21.9
07 17.07 СВ 7 30 км ясно +24.9 +6.2 30 +25 +27 комфорт 1010.2 1004.1
08 17.07 В 5 30 км ясно +27.7 +8.8 30 +28 +34 жарко 1010.2 1004.1
09 17.07 ЮВ 3 20 км ясно +28.6 +6.2 24 +27 +41 жарко 1010.6 1004.5
10 17.07 ЮЗ 2 20 км ясно +27.2 +13.8 44 +29 +48 жарко 1010.3 1004.2
11 17.07 ЮВ 2 20 км 1/1 1000 м
[Cu med, cong]
+26.8 +16.3 53 +30 +47 душно 1010.3 1004.2
12 17.07 З 3 20 км 1/1 1000 м
[Cu med, cong]
+27.0 +15.4 49 +30 +43 душно 1010.3 1004.2
13 17.07 З 4 20 км 1/1 1000 м
[Cu med, cong]
+26.5 +14.5 48 +29 +38 жарко 1010.6 1004.5
14 17.07 З 4 н/о н/о +26.3 +16.0 53 +30 +30 душно 1011.1 1005.0
15 17.07 З 4 н/о н/о +25.9 1011.1 1005.0
16 17.07 З 3 н/о н/о +25.8 +16.4 56 +29 +29 душно 1010.7 1004.6
17 17.07 З 2 н/о н/о +25.6 +16.5 57 +29 +29 душно 1010.6 1004.5
18 17.07 З 2 20 км ясно +24.6 +15.2 56 +28 +28 душно 1010.1 1004.0 +29.0
19 17.07 СЗ 2 20 км ясно +23.8 +14.6 56 +26 +26 жарко 1010.1 1004.0
20 17.07 СЗ 2 30 км ясно +23.7 +14.9 58 +27 +27 жарко 1010.1 1004.0
21 17.07 СЗ 2 н/о н/о +22.7 +12.1 51 +25 +25 комфорт 1010.7 1004.5
00 18.07 З 2 н/о н/о +24.2 +10.9 43 +25 +25 комфорт 1010.4 1004.3
03 18.07 СВ 2 30 км ясно +24.1 +9.6 40 +25 +25 комфорт 1009.7 1003.6
04 18.07 С 1 30 км ясно +23.5 1010.0 1003.9
05 18.07 штиль 0 30 км ясно +23.2 1010.2 1004.0
06 18.07 В 4 30 км 3/0
[Ci fib]
+26.3 +10.5 37 +27 +30 жарко 1010.3 1004.2 +22.2
07 18.07 ЮВ 4 30 км 1/0
[Ci fib]
+26.7 +12.5 41 +28 +34 жарко 1011.0 1004.9
08 18.07 ЮВ 3 30 км 3/0
[Ci fib]
+27.1 +14.0 45 +29 +39 жарко 1011.0 1004.9

 

Местоположение метеостанции Дубровник (Хорватия): широта 42.65 долгота 18.08 высота над уровнем моря 53 м.

В архиве по умолчанию представлена погода в Дубровнике за последнюю неделю. Архивные данные за месяц целиком и за предыдущие месяцы, начиная с января 2011 года, Вы можете получить, выбрав интересующий диапазон дат из раскрывающегося списка и нажав кнопку "Ввод!".


*Определитесь, кто Вы:
робот инопланетянин человек

Внимание! Время в таблицах - всемирное. Для получения местного времени необходимо прибавить поправку, которая равна 1 ч.

Смотрите также архив погоды в соседних городах и на ближайших метеорологических станциях:

Погода в Дубровник аэропорту (Хорватия) (18 км)
Погода в Неуме (Босния и Герцеговина) (49 км)
Погода в Тивате (Черногория) (60 км)
Погода в Плоче (Хорватия) (68 км)
Погода в Никшиче (Черногория) (72 км)
Погода в Мостаре (Босния и Герцеговина) (81 км)
Погода в Ластово (Хорватия) (97 км)
Погода в Подгорице (Черногория) (101 км)
Погода в Подгорица-Граде (Черногория) (101 км)
Погода в Баре (Черногория) (104 км)

Пояснения к столбцам:

Ветер - указаны скорость ветра в м/с - средняя за 10 мин, порывы в срок и между сроками (в фигурных скобках) и направление, откуда дует ветер: С - северный, СВ - северо-восточный, В - восточный, ЮВ - юго-восточный, Ю - южный, ЮЗ - юго-западный, З - западный, СЗ - северо-западный.
Видимость - горизонтальная дальность видимости в метрах или километрах. При видимости от 1 до 10 км при отсутствии осадков обычно наблюдается дымка, при ухудшении видимости до 1 км и менее - туман. В сухую погоду видимость может ухудшаться дымом, пылью или мглою.
Явления - указаны атмосферные явления, наблюдавшиеся в срок или в последний час перед сроком; фигурными скобками обозначены явления, наблюдавшиеся между сроками (за 1-3 часа до срока); квадратными скобками обозначены град или гололедные отложения с указанием их диаметра в мм.
Облачность - указаны через наклонную черту общая и нижняя облачность в баллах и высота нижней границы облаков в метрах; квадратными скобками обозначены формы облаков: Ci - перистые, Cs - перисто-слоистые, Cc - перисто-кучевые, Ac - высококучевые, As - высокослоистые, Sc - слоисто-кучевые, Ns - слоисто-дождевые, Cu - кучевые, Cb - кучево-дождевые. Подробнее классификацию облаков см. в Атласе облаков (PDF).
T - Температура воздуха - температура, измеренная на высоте 2 м над землей.
Td - Температура точки росы - температура, при понижении до которой содержащийся в воздухе водяной пар достигнет насыщения.
f - Относительная влажность воздуха - влажноcть воздуха, измеренная на высоте 2 м над землей.
Te - Эффективная температура - температура, которую ощущает одетый по сезону человек в тени. Характеристика душности погоды. При расчете учитывается влияние влажности воздуха и скорости ветра на теплоощущения человека.
Tes - Эффективная температура на солнце - температура, которую ощущает человек, с поправкой на солнечный нагрев. Характеристика знойности погоды. Зависит от высоты солнца над горизонтом, облачности и скорости ветра. Ночью, в пасмурную погоду, а также при ветре 12 м/с и более поправка равна нулю.
P - Атмосферное давление - приведенное к уровню моря атмосферное давление.
Po - Атмосферное давление - измеренное на уровне метеостанции атмосферное давление.
Tmin - Минимальная температура - минимум температуры воздуха на высоте 2 м над землей.
Tmax - Максимальная температура - максимум температуры воздуха на высоте 2 м над землей.
R - Количество осадков - Количество выпавших осадков за период времени, мм. При наведении курсора мыши на число - период времени, за который выпало указанное количество осадков.
R24 - Количество осадков - Количество выпавших осадков за 24 часа, мм.
S - Снежный покров - Высота снежного покрова, см. При наведении курсора мыши на число - состояние снежного покрова и степень покрытия местности в баллах.